sat.trackr.live / text

‹ back to catalog

HULIANWANG DIGUI-05

NORAD 62327 · 2024-240E

PAYLOAD ACTIVE UNKNOWN

§ Identity

Operator
Country
PRC
Launch date
2024-12-16
Launch site
WSC
Launch vehicle
Mass (kg)
RCS (m²)

External: N2YO · Heavens-Above · Gunter

§ Orbital elements

Epoch: 2026-09-22T21:15:59.490144Z

Period
108.73 min
Inclination
86.5025°
Eccentricity
0.0001446
Mean motion
13.24414016 rev/d
Perigee alt
1,166.8 km
Apogee alt
1,169.0 km
Semi-major
7,546.0 km
B*
2.9646e-6
RAAN
310.5490°
Arg perigee
94.4199°
Mean anomaly
265.7100°
Rev number
8,557

§ Raw data

HULIANWANG DIGUI-051 62327U 24240E   26265.88610521  .00000016  00000+0  29646-5 0  99922 62327  86.5025 310.5490 0001446  94.4199 265.7100 13.24414016 85573

JSON: /api/v1/satellites/62327 · /tle

For live sub-satellite position, see the globe view (requires WebGL).

§ Visibility from observer

Set your observer location to see the next 7 days of passes ≥ 10°. The values pass through the URL so the page stays shareable.

No JS? Fill the form by hand. The geolocation button needs JavaScript.